[[{"header":{"parameterUnit":"m.s-1","parameterCategory":1,"la1":30.2991,"la2":30.254,"lo1":-89.0895,"lo2":-89.0444,"dy":0.0017,"dx":0.0017,"nx":28,"ny":28,"refTime":"2024-05-15T03:00:00:Z","depth":0,"parameterNumber":2,"parameterNumberName":"U-component_of_WINDS"},"data":[0,0,0,0,0,0,0,0,0,0,0,0,0,0,0,0,0,0,0,0,0,0,0,0,0,0,0,0,0,0,0,0,0,0,0,0,0,0,0,0,0,0,0,0,0,0,0,0,0,0,0,0,0,0,0,0,0,0,0.4496,0.4496,0,0.4498,0.4498,0.4498,0.4395,0.4392,0.439,0.4387,0.4396,0.4399,0.4402,0,0,0,0,0,0,0,0,0,0,0,0,0,0.4412,0.4414,0.4496,0.4496,0.4496,0.4498,0.4498,0.4498,0.4396,0.4392,0.4389,0.4386,0.4395,0.4399,0.4402,0,0,0,0,0,0,0,0,0,0,0,0,0,0.4435,0.4415,0.4496,0.4445,0.4441,0.4498,0.4498,0.4498,0.4396,0.4392,0.4388,0.4384,0.4394,0.4398,0.4403,0.4511,0,0,0.4415,0.4417,0,0,0,0,0,0,0,0,0.4434,0.4438,0.4453,0.4449,0.4444,0.4442,0.4471,0.4502,0.4397,0.4414,0.4387,0.4382,0.4415,0.4418,0.4427,0.4511,0.4511,0.4416,0.4418,0.442,0.4421,0,0,0,0,0,0,0,0.4432,0.4438,0.4497,0.4453,0.4448,0.4425,0.4423,0.4477,0.4438,0.4412,0.4404,0.4406,0.4412,0.4423,0.4427,0.4511,0.4416,0.4419,0.4422,0.4424,0.4685,0.4689,0,0,0,0,0,0,0.4437,0.4437,0.4497,0.4497,0.4428,0.443,0.4428,0.4447,0.4437,0.4431,0.4409,0.4401,0.4418,0.4422,0.4427,0.4553,0.442,0.4424,0.4426,0.4681,0.4686,0.4691,0,0,0,0,0,0,0.4435,0.4443,0.4497,0.4465,0.447,0.4435,0.4457,0.4449,0.446,0.4434,0.4428,0.4427,0.4415,0.4421,0.449,0.4552,0.4426,0.443,0.4676,0.4683,0.4689,0.4807,0,0,0,0,0,0,0.4433,0.4443,0.4482,0.4467,0.4472,0.4559,0.4461,0.4452,0.4467,0.4456,0.445,0.4445,0.4412,0.4484,0.4494,0.4556,0.4433,0.467,0.4679,0.4687,0.4798,0.4817,0.4834,0,0,0,0,0,0.4431,0.4517,0.4485,0.4493,0.452,0.4563,0.4566,0.4524,0.4472,0.4512,0.4496,0.4445,0.4543,0.4492,0.4503,0.4566,0.4666,0.4676,0.4686,0.479,0.4813,0.4833,0,0,0,0,0,0,0.4544,0.4514,0.4478,0.4561,0.4565,0.4545,0.4595,0.4551,0.4571,0.4561,0.4511,0.451,0.4588,0.4584,0.4528,0.4671,0.4596,0.4608,0.4671,0.4693,0.4711,0.4712,0.4436,0,0,0,0,0,0.4578,0.4613,0.4586,0.4662,0.4665,0.463,0.4647,0.4614,0.4617,0.4619,0.4608,0.4615,0.4647,0.4669,0.4698,0.4796,0.4794,0.4845,0.4863,0.4878,0.489,0.4943,0.4966,0.4724,0.4724,0.4724,0,0,0.465,0.4638,0.4664,0.4685,0.4683,0.4723,0.4632,0.4678,0.4707,0.4627,0.4691,0.4683,0.4688,0.4772,0.4809,0.4771,0.4956,0.489,0.4902,0.4907,0.4956,0.4979,0.4999,0.4731,0.4729,0.4728,0,0,0.4802,0.4795,0.4858,0.4859,0.4857,0.4833,0.4848,0.4835,0.4826,0.4889,0.4829,0.4865,0.4921,0.4927,0.4938,0.5091,0.5046,0.5101,0.5197,0.5249,0.5268,0.5285,0.5341,0.5362,0.5113,0.5114,0.5114,0,0.4892,0.4947,0.4897,0.4946,0.4958,0.4884,0.4949,0.4953,0.4962,0.4973,0.4929,0.4998,0.4996,0.5082,0.5119,0.5129,0.5147,0.5103,0.5269,0.5285,0.53,0.5354,0.5375,0.512,0.512,0.5119,0.5118,0,0.5059,0.5098,0.515,0.5158,0.5175,0.5233,0.5193,0.5218,0.5183,0.5164,0.5231,0.5225,0.5251,0.5269,0.5237,0.5351,0.5327,0.5277,0.5201,0.5331,0.538,0.54,0.513,0.5128,0.5126,0.5124,0,0,0.5284,0.5262,0.5282,0.5285,0.5278,0.5309,0.5363,0.5386,0.5409,0.5417,0.5464,0.5512,0.5466,0.5478,0.5446,0.5491,0.5615,0.5436,0.5435,0.5471,0.5742,0.5782,0.5806,0.5584,0.5588,0.5591,0.5743,0,0.5432,0.5521,0.5478,0.5574,0.561,0.554,0.5588,0.559,0.5574,0.5604,0.5587,0.5623,0.5558,0.5565,0.5606,0.5591,0.567,0.5579,0.563,0.5632,0.5633,0.5831,0.5873,0.6016,0.5761,0.5765,0.5767,0,0.5617,0.5631,0.573,0.5716,0.573,0.5773,0.5791,0.582,0.5822,0.5807,0.582,0.5777,0.5832,0.5755,0.5831,0.5771,0.5789,0.5785,0.5789,0.5794,0.5709,0.5844,0.6061,0.6084,0.5797,0.5794,0.5792,0,0.5773,0.5817,0.5882,0.5886,0.5871,0.5904,0.59,0.5897,0.5914,0.593,0.5941,0.5964,0.5978,0.5998,0.5964,0.5911,0.6047,0.5966,0.6038,0.6039,0.6072,0.6071,0.6297,0.608,0.608,0.6079,0.6079,0,0.5944,0.6008,0.5951,0.5992,0.6062,0.6012,0.6084,0.6072,0.607,0.6109,0.605,0.6088,0.6039,0.6074,0.6047,0.6116,0.6122,0.6113,0.6106,0.612,0.6121,0.6133,0.6123,0.6085,0.6084,0.6083,0.6082,0,0.6131,0.6096,0.6162,0.6142,0.6138,0.6191,0.6175,0.6213,0.6191,0.6241,0.625,0.6218,0.6255,0.6222,0.6259,0.6241,0.6333,0.631,0.6332,0.6326,0.6401,0.6395,0.6644,0.6675,0.6437,0.6439,0.6441,0,0.6244,0.6291,0.6275,0.6295,0.6294,0.6328,0.6344,0.6297,0.6317,0.6322,0.636,0.6391,0.6414,0.6477,0.6459,0.6487,0.6466,0.6551,0.647,0.6482,0.647,0.6468,0.6473,0.6569,0.6571,0.6574,0.6576,0,0.6448,0.6427,0.6452,0.647,0.6491,0.6504,0.6512,0.6533,0.6485,0.6511,0.6546,0.6564,0.66,0.6633,0.6655,0.6653,0.6608,0.6601,0.6619,0.6635,0.6646,0.6643,0.6379,0.6596,0.6594,0.6592,0.6591,0.659,0.6602,0.6641,0.6636,0.6665,0.6666,0.6676,0.671,0.6692,0.672,0.6744,0.6715,0.676,0.6762,0.6785,0.6789,0.6825,0.679,0.6816,0.6823,0.6831,0.6843,0.6639,0.6829,0.6828,0.6827,0.6827,0.6826,0,0.6804,0.6797,0.6824,0.6837,0.6861,0.6813,0.682,0.6844,0.6883,0.6887,0.691,0.6952,0.6983,0.6967,0.6995,0.7027,0.7007,0.7036,0.7035,0.7035,0.6872,0.6854,0.7052,0.7052,0.7052,0.7052,0.7052,0.7052,0.6913,0.6976,0.6956,0.702,0.7012,0.7054,0.7062,0.7072,0.7074,0.7123,0.7148,0.7136,0.7133,0.716,0.7187,0.7182,0.7196,0.7233,0.7221,0.7069,0.7047,0.7026,0.7009,0.7236,0.7236,0.7382,0.7383,0.7384]},{"header":{"parameterUnit":"m.s-1","parameterCategory":1,"la1":30.2991,"la2":30.254,"lo1":-89.0895,"lo2":-89.0444,"dy":0.0017,"dx":0.0017,"nx":28,"ny":28,"refTime":"2024-05-15T03:00:00:Z","depth":0,"parameterNumber":3,"parameterNumberName":"V-component_of_WINDS"},"data":[0,0,0,0,0,0,0,0,0,0,0,0,0,0,0,0,0,0,0,0,0,0,0,0,0,0,0,0,0,0,0,0,0,0,0,0,0,0,0,0,0,0,0,0,0,0,0,0,0,0,0,0,0,0,0,0,0,0,1.0315,1.0315,0,1.0321,1.0321,1.0321,1.0272,1.0271,1.0269,1.0268,1.0274,1.0276,1.0277,0,0,0,0,0,0,0,0,0,0,0,0,0,1.026,1.0261,1.0315,1.0315,1.0315,1.0321,1.0321,1.0321,1.0272,1.0271,1.0269,1.0267,1.0274,1.0275,1.0277,0,0,0,0,0,0,0,0,0,0,0,0,0,1.0277,1.0261,1.0315,1.0291,1.0289,1.0321,1.0321,1.0321,1.0273,1.0271,1.0268,1.0267,1.0273,1.0275,1.0277,1.0332,0,0,1.0284,1.0285,0,0,0,0,0,0,0,0,1.0276,1.0279,1.0295,1.0293,1.0291,1.0294,1.0304,1.0325,1.0273,1.0279,1.0268,1.0266,1.0282,1.0284,1.0289,1.0332,1.0333,1.0284,1.0285,1.0286,1.0287,0,0,0,0,0,0,0,1.0275,1.0278,1.0317,1.0295,1.0293,1.028,1.028,1.0308,1.0292,1.0278,1.0275,1.0276,1.0281,1.0287,1.0289,1.0333,1.0284,1.0286,1.0287,1.0288,1.0421,1.0423,0,0,0,0,0,0,1.0277,1.0277,1.0317,1.0317,1.0278,1.0283,1.0283,1.0295,1.0292,1.0289,1.0278,1.0274,1.0285,1.0287,1.0289,1.0353,1.0286,1.0288,1.029,1.0419,1.0421,1.0424,0,0,0,0,0,0,1.0276,1.0281,1.0317,1.0297,1.03,1.0286,1.03,1.0296,1.0302,1.0291,1.0288,1.0287,1.0283,1.0286,1.0322,1.0353,1.0289,1.0291,1.0416,1.0419,1.0423,1.0482,0,0,0,0,0,0,1.0274,1.0281,1.0301,1.0297,1.0301,1.035,1.0302,1.0298,1.0306,1.0301,1.03,1.0297,1.0282,1.0319,1.0324,1.0354,1.0293,1.0413,1.0418,1.0421,1.0477,1.0487,1.0495,0,0,0,0,0,1.0273,1.0318,1.0303,1.0308,1.0327,1.0352,1.0354,1.0335,1.0309,1.033,1.0323,1.0297,1.0348,1.0323,1.0328,1.036,1.0411,1.0416,1.0421,1.0473,1.0485,1.0495,0,0,0,0,0,0,1.0326,1.0317,1.03,1.0345,1.035,1.0343,1.0369,1.0348,1.036,1.0355,1.033,1.0331,1.037,1.0368,1.034,1.0413,1.0375,1.0381,1.0413,1.0424,1.0433,1.0433,1.0295,0,0,0,0,0,1.0343,1.0363,1.0354,1.0395,1.0398,1.0383,1.0393,1.0378,1.0382,1.0383,1.0379,1.0383,1.04,1.0412,1.0426,1.0476,1.0475,1.0501,1.051,1.0517,1.0523,1.0549,1.0561,1.044,1.044,1.044,0,0,1.0378,1.0376,1.039,1.0406,1.0407,1.0429,1.0385,1.041,1.0426,1.0387,1.0421,1.0418,1.0421,1.0464,1.0482,1.0463,1.0556,1.0523,1.0529,1.0531,1.0556,1.0567,1.0577,1.0444,1.0443,1.0442,0,0,1.0454,1.0454,1.0488,1.0491,1.0494,1.0483,1.0492,1.0488,1.0485,1.0518,1.0489,1.0508,1.0537,1.0541,1.0547,1.0624,1.0601,1.0629,1.0676,1.0702,1.0712,1.072,1.0748,1.0758,1.0635,1.0635,1.0635,0,1.0497,1.0529,1.0508,1.0535,1.0543,1.0509,1.0543,1.0546,1.0554,1.056,1.0539,1.0575,1.0575,1.0618,1.0637,1.0643,1.0651,1.0629,1.0712,1.072,1.0728,1.0754,1.0765,1.0638,1.0638,1.0638,1.0637,0,1.0583,1.0606,1.0633,1.0642,1.0652,1.0683,1.0666,1.0679,1.0664,1.0656,1.069,1.0688,1.0702,1.0711,1.0696,1.0753,1.0741,1.0716,1.0678,1.0743,1.0767,1.0777,1.0643,1.0642,1.0641,1.064,0,0,1.0693,1.0689,1.07,1.0703,1.0704,1.0721,1.075,1.0764,1.0776,1.0782,1.0806,1.0832,1.0809,1.0815,1.08,1.0823,1.0885,1.0795,1.0795,1.0812,1.0948,1.0967,1.0979,1.0869,1.0871,1.0872,1.0947,0,1.0767,1.0817,1.0799,1.0849,1.087,1.0838,1.0863,1.0866,1.0859,1.0876,1.0868,1.0887,1.0855,1.0859,1.088,1.0873,1.0911,1.0867,1.0891,1.0893,1.0892,1.0991,1.1012,1.1083,1.0957,1.0958,1.096,0,1.0861,1.0871,1.0924,1.0921,1.0929,1.0953,1.0964,1.098,1.0983,1.0976,1.0984,1.0963,1.0991,1.0953,1.0992,1.0962,1.097,1.0968,1.0971,1.0973,1.0931,1.0997,1.1105,1.1116,1.0974,1.0973,1.0972,0,1.0936,1.0963,1.0999,1.1003,1.1,1.1017,1.1017,1.1018,1.1027,1.1037,1.1043,1.1056,1.1063,1.1074,1.1057,1.1031,1.1098,1.1058,1.1094,1.1095,1.111,1.111,1.1222,1.1115,1.1115,1.1115,1.1114,0,1.1021,1.1055,1.1033,1.1055,1.1092,1.107,1.1107,1.1103,1.1104,1.1124,1.1097,1.1116,1.1093,1.1111,1.1098,1.1132,1.1136,1.1131,1.1128,1.1134,1.1135,1.114,1.1135,1.1117,1.1117,1.1116,1.1116,0,1.1112,1.1098,1.1135,1.113,1.1129,1.1157,1.1152,1.1172,1.1163,1.1189,1.1194,1.118,1.1199,1.1184,1.1203,1.1194,1.124,1.1229,1.1239,1.1236,1.1273,1.127,1.1393,1.1408,1.1291,1.1292,1.1293,0,1.1168,1.1193,1.1191,1.1203,1.1204,1.1223,1.1233,1.1213,1.1224,1.1229,1.1248,1.1265,1.1278,1.131,1.1302,1.1316,1.1305,1.1347,1.1307,1.1313,1.1307,1.1306,1.1308,1.1356,1.1357,1.1358,1.1359,0,1.1268,1.126,1.1275,1.1288,1.1301,1.131,1.1317,1.1328,1.1307,1.1321,1.134,1.135,1.1369,1.1387,1.1398,1.1397,1.1375,1.1372,1.1381,1.1388,1.1393,1.1392,1.1262,1.1369,1.1368,1.1367,1.1367,1.1367,1.1344,1.1365,1.1366,1.1384,1.1387,1.1394,1.1413,1.1406,1.1422,1.1436,1.1423,1.1447,1.1449,1.1462,1.1464,1.1482,1.1465,1.1478,1.1481,1.1485,1.149,1.139,1.1484,1.1484,1.1483,1.1483,1.1483,0,1.1443,1.1442,1.1459,1.1469,1.1484,1.1461,1.1468,1.1481,1.1502,1.1506,1.1519,1.1541,1.1558,1.1551,1.1565,1.1581,1.1571,1.1586,1.1585,1.1585,1.1505,1.1496,1.1593,1.1593,1.1593,1.1593,1.1593,1.1593,1.1496,1.1531,1.1523,1.1559,1.1558,1.1581,1.1587,1.1593,1.1596,1.1623,1.1636,1.1632,1.1631,1.1645,1.166,1.1657,1.1664,1.1682,1.1676,1.1602,1.1591,1.158,1.1572,1.1684,1.1684,1.1755,1.1756,1.1756]}]]